Weather in Bama

Nigeria     11°31′10″N   13°41′36″E
temp.,
°C
wind,
m/s
gust,
m/s
humid.,
%
clouds,
%
prec.,
mm/h
press.,
hPa
HPBL,
m
5 march, fri
fri501:00+20nne233441 0.0 101027
04:00+18ne23290 0.0 101023
07:00+20ne23250 0.0 101230
10:00+31ene57110 0.0 1012670
13:00+37ne5580 0.0 10081417
16:00+39ne4480 0.0 10052790
19:00+28n612160 0.0 1007221
22:00+25n49220 0.0 1010148
6 march, sat
sat601:00+22n34330 0.0 101050
04:00+19e23390 0.0 101023
07:00+21e34280 0.0 101347
10:00+32ene68951 0.0 1013774
13:00+38ene56751 0.0 10091688
16:00+40ne5570 0.0 10072717
19:00+30n5111412 0.0 1008199
22:00+26n48192 0.0 1011131
7 march, sun
sun701:00+23n49243 0.0 1010161
04:00+18ese12410 0.0 100923
07:00+21ene22290 0.0 101123
10:00+33ne57831 0.0 1012737
13:00+39ne56631 0.0 10081628
16:00+40n75613 0.0 10062547
19:00+30n59127 0.0 1007148
22:00+25n45150 0.0 100972
8 march, mon
mon801:00+21n23210 0.0 100827
04:00+18ne12320 0.0 100823
07:00+20ene23230 0.0 100923
10:00+32ene4650 0.0 1010657
13:00+38ne2350 0.0 10061575
16:00+40nnw2340 0.0 10042785
19:00+30n58100 0.0 1005128
22:00+25n34110 0.0 100837
9 march, tue
tue901:00+21nne23170 0.0 100724
04:00+17w12280 0.0 100723
07:00+20n00290 0.0 100823
10:00+33e3560 0.0 1009625
13:00+39ene3340 0.0 10051395
16:00+40nne2240 0.0 10023078
19:00+30n4580 0.0 100454
22:00+25nne45100 0.0 100651